Location: Basse Occidentale du Courleau
(48.3833°N, 4.8333°W)
Time: 03:35:15
(UTC+00:00)

Cosmos 1943 Rocket - Pass Details

Date: 05 July 2020
Orbit: 811 x 845 km, 71.0° (Epoch: 10 August)

Event Time Altitude Azimuth Distance (km) Brightness Sun altitude
Rises 22:51:44 0° 336° (NNW) 3,416 7.2 -16.0°
Reaches altitude 10° 22:54:38 10° 349° (N) 2,478 5.9 -16.2°
Maximum altitude 22:59:19 26° 45° (NE) 1,625 3.9 -16.5°
Drops below altitude 10° 23:03:59 10° 100° (E) 2,462 4.3 -16.7°
Enters shadow 23:04:43 - 105° (ESE) 2,691 4.5 -16.8°
